When you browse on this site, cookies collect data to enhance your experience and personalize the content and advertising you see.
Visit our Privacy Policy to learn more. By continuing to use the site, you agree to this use of cookies and data.
  • En España
  • Lista de países
  • Para 7 días
  • Temperatura del agua
  • El tiempo en el mapa
  • Informadores
  • user-avatar
    Iniciar sesión

    Tiempo cada hora Rastopchino

    Hoy, 24 Agosto, Sábado

    Tiempo Temperatura Precipitaciones Viento Presión Humedad
    00:00 +14°C° 0 mm 2 mps 751 mmHg 89%
    01:00 +14°C° 0 mm 2 mps 751 mmHg 89%
    02:00 +14°C° 0 mm 2 mps 751 mmHg 90%
    03:00 +14°C° 0 mm 2 mps 751 mmHg 90%
    04:00 +13°C° 0 mm 2 mps 751 mmHg 90%
    05:00 +13°C° 0 mm 1 mps 751 mmHg 90%
    06:00 +15°C° 0 mm 1 mps 751 mmHg 84%
    07:00 +18°C° 0 mm 1 mps 751 mmHg 78%
    08:00 +19°C° 0 mm 1 mps 751 mmHg 72%
    09:00 +21°C° 0 mm 1 mps 751 mmHg 66%
    10:00 +22°C° 0 mm 1 mps 751 mmHg 60%
    11:00 +21°C° 0 mm 0 mps 751 mmHg 55%
    12:00 +24°C° 0 mm 1 mps 750 mmHg 53%
    13:00 +24°C° 0 mm 1 mps 750 mmHg 51%
    14:00 +24°C° 0 mm 2 mps 750 mmHg 49%
    15:00 +24°C° 0 mm 2 mps 750 mmHg 53%
    16:00 +23°C° 0 mm 2 mps 749 mmHg 58%
    17:00 +23°C° 0 mm 2 mps 749 mmHg 63%
    18:00 +20°C° 0 mm 2 mps 749 mmHg 66%
    19:00 +20°C° 0 mm 1 mps 749 mmHg 69%
    20:00 +18°C° 0 mm 1 mps 749 mmHg 73%
    21:00 +16°C° 0 mm 1 mps 749 mmHg 76%
    22:00 +16°C° 0 mm 2 mps 749 mmHg 78%
    23:00 +15°C° 0 mm 2 mps 749 mmHg 81%

    Mañana, 25 Agosto, Domingo

    Tiempo Temperatura Precipitaciones Viento Presión Humedad
    00:00 +15°C° 0 mm 2 mps 749 mmHg 85%
    01:00 +15°C° 0 mm 2 mps 749 mmHg 88%
    02:00 +15°C° 0 mm 2 mps 749 mmHg 92%
    03:00 +14°C° 0 mm 2 mps 749 mmHg 93%
    04:00 +14°C° 0 mm 2 mps 749 mmHg 94%
    05:00 +14°C° 0 mm 2 mps 749 mmHg 95%
    06:00 +14°C° 0 mm 3 mps 749 mmHg 89%
    07:00 +17°C° 0 mm 3 mps 749 mmHg 82%
    08:00 +18°C° 0 mm 3 mps 750 mmHg 76%
    09:00 +19°C° 0 mm 4 mps 750 mmHg 70%
    10:00 +20°C° 0 mm 4 mps 750 mmHg 64%
    11:00 +21°C° 0 mm 4 mps 750 mmHg 58%
    12:00 +21°C° 0 mm 4 mps 750 mmHg 58%
    13:00 +22°C° 0 mm 4 mps 750 mmHg 57%
    14:00 +22°C° 0 mm 4 mps 750 mmHg 57%
    15:00 +21°C° 0 mm 3 mps 750 mmHg 61%
    16:00 +21°C° 0 mm 3 mps 750 mmHg 64%
    17:00 +20°C° 0 mm 3 mps 750 mmHg 68%
    18:00 +19°C° 0 mm 3 mps 751 mmHg 72%
    19:00 +17°C° 0 mm 2 mps 751 mmHg 75%
    20:00 +16°C° 0 mm 2 mps 751 mmHg 79%
    21:00 +15°C° 0 mm 2 mps 751 mmHg 81%
    22:00 +15°C° 0 mm 2 mps 752 mmHg 83%
    23:00 +14°C° 0 mm 2 mps 752 mmHg 84%

    Pasado mañana, 26 Agosto, Lunes

    Tiempo Temperatura Precipitaciones Viento Presión Humedad
    00:00 +14°C° 0 mm 1 mps 752 mmHg 86%
    01:00 +13°C° 0 mm 1 mps 752 mmHg 87%
    02:00 +13°C° 0 mm 1 mps 752 mmHg 89%
    03:00 +12°C° 0 mm 1 mps 752 mmHg 89%
    04:00 +12°C° 0 mm 1 mps 752 mmHg 90%
    05:00 +12°C° 0 mm 1 mps 752 mmHg 90%
    06:00 +14°C° 0 mm 1 mps 752 mmHg 83%
    07:00 +16°C° 0 mm 1 mps 753 mmHg 77%
    08:00 +18°C° 0 mm 1 mps 753 mmHg 70%
    09:00 +19°C° 0 mm 1 mps 753 mmHg 65%
    10:00 +21°C° 0 mm 1 mps 753 mmHg 61%
    11:00 +22°C° 0 mm 1 mps 753 mmHg 56%
    12:00 +22°C° 0 mm 1 mps 752 mmHg 54%
    13:00 +23°C° 0 mm 1 mps 752 mmHg 52%
    14:00 +23°C° 0 mm 1 mps 752 mmHg 50%
    15:00 +23°C° 0 mm 1 mps 751 mmHg 54%
    16:00 +22°C° 0 mm 1 mps 751 mmHg 57%
    17:00 +22°C° 0 mm 1 mps 750 mmHg 61%
    18:00 +20°C° 0 mm 1 mps 750 mmHg 64%
    19:00 +19°C° 0 mm 1 mps 750 mmHg 68%
    20:00 +16°C° 0 mm 1 mps 750 mmHg 71%
    21:00 +16°C° 0 mm 1 mps 750 mmHg 71%
    22:00 +15°C° 0 mm 2 mps 750 mmHg 72%
    23:00 +15°C° 0 mm 2 mps 750 mmHg 72%

    27 Agosto, Martes

    Tiempo Temperatura Precipitaciones Viento Presión Humedad
    00:00 +14°C° 0 mm 2 mps 749 mmHg 74%
    01:00 +14°C° 0 mm 2 mps 749 mmHg 77%
    02:00 +12°C° 0 mm 3 mps 748 mmHg 79%
    03:00 +12°C° 0 mm 3 mps 748 mmHg 81%
    04:00 +12°C° 0 mm 3 mps 748 mmHg 82%
    05:00 +12°C° 0 mm 3 mps 748 mmHg 84%
    06:00 +14°C° 0 mm 3 mps 747 mmHg 82%
    07:00 +16°C° 0 mm 3 mps 747 mmHg 80%
    08:00 +18°C° 0 mm 4 mps 747 mmHg 77%
    09:00 +19°C° 0 mm 4 mps 746 mmHg 73%
    10:00 +20°C° 0 mm 4 mps 746 mmHg 68%
    11:00 +22°C° 0 mm 5 mps 746 mmHg 63%
    12:00 +22°C° 0.2 mm 5 mps 745 mmHg 65%
    13:00 +22°C° 0.2 mm 6 mps 745 mmHg 67%
    14:00 +22°C° 0.2 mm 6 mps 744 mmHg 69%
    15:00 +21°C° 0.1 mm 6 mps 744 mmHg 72%
    16:00 +20°C° 0.1 mm 6 mps 744 mmHg 74%
    17:00 +19°C° 0.1 mm 5 mps 744 mmHg 77%
    18:00 +17°C° 0 mm 5 mps 744 mmHg 78%
    19:00 +16°C° 0 mm 5 mps 744 mmHg 79%
    20:00 +14°C° 0 mm 5 mps 745 mmHg 79%
    21:00 +14°C° 0 mm 5 mps 745 mmHg 81%
    22:00 +13°C° 0 mm 5 mps 746 mmHg 82%
    23:00 +12°C° 0 mm 5 mps 746 mmHg 84%

    28 Agosto, Miércoles

    Tiempo Temperatura Precipitaciones Viento Presión Humedad
    00:00 +11°C° 0 mm 4 mps 747 mmHg 84%
    01:00 +10°C° 0 mm 4 mps 747 mmHg 84%
    02:00 +7°C° 0 mm 4 mps 747 mmHg 84%
    03:00 +8°C° 0 mm 3 mps 747 mmHg 83%
    04:00 +7°C° 0 mm 3 mps 748 mmHg 83%
    05:00 +5°C° 0 mm 3 mps 748 mmHg 83%
    06:00 +6°C° 0 mm 4 mps 748 mmHg 78%
    07:00 +8°C° 0 mm 4 mps 748 mmHg 73%
    08:00 +9°C° 0 mm 5 mps 749 mmHg 68%
    09:00 +10°C° 0 mm 5 mps 748 mmHg 64%
    10:00 +11°C° 0 mm 6 mps 748 mmHg 60%
    11:00 +14°C° 0 mm 6 mps 748 mmHg 56%
    12:00 +14°C° 0 mm 6 mps 748 mmHg 54%
    13:00 +15°C° 0 mm 6 mps 748 mmHg 52%
    14:00 +15°C° 0 mm 6 mps 748 mmHg 49%
    15:00 +14°C° 0 mm 5 mps 748 mmHg 53%
    16:00 +14°C° 0 mm 4 mps 748 mmHg 56%
    17:00 +13°C° 0 mm 4 mps 748 mmHg 60%
    18:00 +12°C° 0 mm 3 mps 748 mmHg 63%
    19:00 +10°C° 0 mm 3 mps 749 mmHg 67%
    20:00 +9°C° 0 mm 3 mps 749 mmHg 71%
    21:00 +8°C° 0 mm 3 mps 749 mmHg 72%
    22:00 +7°C° 0 mm 2 mps 749 mmHg 73%
    23:00 +7°C° 0 mm 2 mps 749 mmHg 74%

    29 Agosto, Jueves

    Tiempo Temperatura Precipitaciones Viento Presión Humedad
    00:00 +6°C° 0 mm 2 mps 750 mmHg 76%
    01:00 +6°C° 0 mm 2 mps 750 mmHg 78%
    02:00 +5°C° 0 mm 2 mps 750 mmHg 80%
    03:00 +5°C° 0 mm 2 mps 750 mmHg 81%
    04:00 +5°C° 0 mm 2 mps 750 mmHg 82%
    05:00 +5°C° 0 mm 2 mps 750 mmHg 84%
    06:00 +5°C° 0 mm 3 mps 750 mmHg 78%
    07:00 +8°C° 0 mm 3 mps 750 mmHg 73%
    08:00 +10°C° 0 mm 4 mps 750 mmHg 67%
    09:00 +11°C° 0 mm 4 mps 750 mmHg 63%
    10:00 +12°C° 0 mm 4 mps 750 mmHg 59%
    11:00 +14°C° 0 mm 4 mps 749 mmHg 55%
    12:00 +14°C° 0 mm 4 mps 749 mmHg 53%
    13:00 +15°C° 0 mm 4 mps 749 mmHg 52%
    14:00 +17°C° 0 mm 4 mps 749 mmHg 51%
    15:00 +15°C° 0 mm 4 mps 748 mmHg 55%
    16:00 +16°C° 0 mm 3 mps 748 mmHg 59%
    17:00 +16°C° 0 mm 3 mps 748 mmHg 63%
    18:00 +13°C° 0 mm 3 mps 748 mmHg 63%
    19:00 +12°C° 0 mm 3 mps 749 mmHg 63%
    20:00 +11°C° 0 mm 4 mps 749 mmHg 63%
    21:00 +10°C° 0 mm 3 mps 749 mmHg 69%
    22:00 +8°C° 0 mm 3 mps 749 mmHg 75%
    23:00 +7°C° 0 mm 2 mps 749 mmHg 81%
    Mostrar más